Location: Avenches
(46.8809°N, 7.0410°E)
Time: 08:56:20
(UTC+00:00)

NOSS 3-4 (A) - Pass Details

Date: 30 March 2020
Orbit: 895 x 1317 km, 63.4° (Epoch: 21 May)

Event Time Altitude Azimuth Distance (km) Brightness Sun altitude
Rises 21:20:33 0° 319° (NW) 3,821 7.8 -30.8°
Reaches altitude 10° 21:23:04 10° 319° (NW) 2,921 6.9 -31.1°
Maximum altitude 21:30:04 80° 233° (SW) 1,182 3.7 -31.8°
Enters shadow 21:30:09 80° 224° (SW) 1,183 3.7 -31.9°
